ORBCOMM FM41 [-]

Last updated on Fri Dec 29 2023 00:02:54 GMT+0000 (Coordinated Universal Time)

1 33061U 08031B 23362.40374160 .00002678 00000+0 41045-3 0 9995 2 33061 48.4462 349.8895 0004923 251.8839 261.7965 14.76401641835245
UTC large
Height (km)
Speed (km/s)
/
Latitude / Longitude
Inclination (degrees)
Orbital Period (minutes)
Azimuth
Elevation
Range (km)
Doppler Factor

Next 0 passes for location: London (51.5072 / 0.1276)

Sorry there are no passes over London.